�N����,����,�~����,�C��,���x,�C��,����,���ϕ���,�ő�u�ԕ���,�ő厞����,���˗�,�I�_���x,�n�����x,�ő啗���N��,DTYPE
"16/11/30","00:10",0.0,7.2,97.2,1026.0,301.4,1.7,2.2,315.6,0.00,6.8,11.1,"00:02:26",1
"16/11/30","00:20",0.0,7.1,97.2,1025.8,300.5,2.0,2.5,314.4,0.00,6.7,11.1,"00:15:26",1
"16/11/30","00:30",0.0,7.1,97.3,1026.0,309.5,1.8,2.6,318.0,0.00,6.7,11.2,"00:27:12",1
"16/11/30","00:40",0.0,7.1,97.1,1025.8,316.9,1.8,2.9,322.9,0.00,6.7,10.9,"00:39:56",1
"16/11/30","00:50",0.0,6.9,97.2,1025.3,319.8,2.5,2.9,332.4,0.00,6.5,11.0,"00:49:50",1
"16/11/30","01:00",0.0,6.9,97.4,1025.6,314.1,3.0,4.0,322.6,0.00,6.6,11.0,"00:56:30",1
"16/11/30","01:10",0.0,6.9,97.2,1025.8,300.6,2.3,3.5,316.2,0.00,6.5,11.0,"01:09:48",1
"16/11/30","01:20",0.0,6.7,96.9,1025.6,298.2,2.1,2.7,307.4,0.00,6.3,11.0,"01:10:08",1
"16/11/30","01:30",0.0,6.7,97.2,1025.8,319.2,2.7,3.4,325.4,0.00,6.3,11.0,"01:26:22",1
"16/11/30","01:40",0.0,6.8,97.3,1025.8,307.2,2.1,2.6,317.1,0.00,6.4,10.8,"01:35:24",1
"16/11/30","01:50",0.0,6.9,97.2,1026.0,324.5,2.5,2.8,335.3,0.00,6.5,11.0,"01:44:16",1
"16/11/30","02:00",0.0,6.8,96.8,1025.6,318.7,2.8,3.6,318.5,0.00,6.4,11.0,"01:58:12",1
"16/11/30","02:10",0.0,6.6,96.1,1025.8,322.0,3.0,3.5,317.1,0.00,6.1,10.8,"02:04:34",1
"16/11/30","02:20",0.0,6.3,96.1,1025.6,317.1,3.1,3.7,325.7,0.00,5.8,11.0,"02:10:52",1
"16/11/30","02:30",0.0,6.1,96.1,1025.3,319.2,2.5,3.3,322.2,0.00,5.6,10.7,"02:27:20",1
"16/11/30","02:40",0.0,5.8,96.3,1025.3,311.3,2.7,3.5,327.2,0.00,5.3,10.8,"02:38:02",1
"16/11/30","02:50",0.0,5.4,96.3,1025.3,288.2,1.5,2.5,306.5,0.00,4.9,10.7,"02:40:16",1
"16/11/30","03:00",0.0,5.0,96.8,1025.1,288.3,2.0,3.1,318.8,0.00,4.6,10.7,"02:53:20",1
"16/11/30","03:10",0.0,4.7,97.2,1024.9,285.9,1.6,2.0,307.2,0.00,4.3,10.5,"03:07:44",1
"16/11/30","03:20",0.0,4.3,97.5,1025.6,290.5,1.6,2.4,317.9,0.00,4.0,10.4,"03:15:28",1
"16/11/30","03:30",0.0,4.1,98.1,1024.9,298.6,1.8,3.1,310.1,0.00,3.9,10.4,"03:29:06",1
"16/11/30","03:40",0.0,4.3,97.4,1024.9,288.9,1.5,2.1,312.8,0.00,4.0,10.4,"03:37:28",1
"16/11/30","03:50",0.0,4.2,98.6,1024.6,289.1,1.7,2.4,302.8,0.00,4.0,10.2,"03:47:20",1
"16/11/30","04:00",0.0,4.5,97.6,1025.1,289.9,1.8,3.2,318.8,0.00,4.2,10.3,"03:52:56",1
"16/11/30","04:10",0.0,4.4,98.5,1024.9,296.0,1.7,2.5,297.8,0.00,4.2,10.2,"04:02:40",1
"16/11/30","04:20",0.0,4.7,97.4,1024.4,285.3,1.8,2.5,305.5,0.00,4.4,10.3,"04:14:48",1
"16/11/30","04:30",0.0,4.5,98.0,1024.4,279.4,1.6,2.0,263.6,0.00,4.3,10.2,"04:28:56",1
"16/11/30","04:40",0.0,4.9,96.8,1024.6,282.0,2.0,2.8,312.6,0.00,4.5,10.2,"04:38:24",1
"16/11/30","04:50",0.0,4.7,97.3,1024.4,299.6,2.5,4.3,308.1,0.00,4.3,10.1,"04:42:56",1
"16/11/30","05:00",0.0,4.5,96.7,1024.6,283.3,1.7,3.4,315.6,0.00,4.1,10.3,"04:52:32",1
"16/11/30","05:10",0.0,4.4,96.7,1024.6,288.4,2.1,3.4,304.8,0.00,4.0,9.9,"05:08:48",1
"16/11/30","05:20",0.0,4.3,96.5,1024.9,297.9,2.0,3.3,318.6,0.00,3.8,10.0,"05:16:16",1
"16/11/30","05:30",0.0,4.2,96.5,1025.1,298.6,1.6,3.1,332.9,0.00,3.7,9.9,"05:28:32",1
"16/11/30","05:40",0.0,4.1,96.5,1024.6,307.6,1.3,2.9,325.6,0.00,3.6,10.0,"05:30:56",1
"16/11/30","05:50",0.0,3.9,96.8,1025.3,279.6,1.3,1.9,304.3,0.00,3.5,9.7,"05:40:08",1
"16/11/30","06:00",0.0,4.0,97.5,1024.9,308.0,2.0,3.2,331.4,0.00,3.7,10.0,"05:55:20",1
"16/11/30","06:10",0.0,4.2,97.4,1025.3,286.6,1.3,2.2,311.9,0.00,3.9,9.9,"06:00:40",1
"16/11/30","06:20",0.0,4.4,97.4,1025.1,316.2,1.8,3.1,318.7,0.00,4.1,9.9,"06:17:44",1
"16/11/30","06:30",0.0,4.7,96.7,1025.6,305.4,2.0,2.9,321.8,0.00,4.3,9.8,"06:22:10",1
"16/11/30","06:40",0.0,4.8,96.3,1025.3,316.8,1.8,3.2,336.0,0.00,4.3,9.7,"06:33:36",1
"16/11/30","06:50",0.0,5.0,95.3,1025.3,301.2,1.6,3.3,329.6,0.00,4.4,9.8,"06:43:06",1
"16/11/30","07:00",0.0,4.9,94.9,1025.3,303.3,1.6,2.7,313.5,0.00,4.2,9.8,"06:50:02",1
"16/11/30","07:10",0.0,4.7,95.1,1025.3,291.1,1.5,3.2,328.6,0.00,4.0,9.9,"07:00:24",1
"16/11/30","07:20",0.0,4.5,95.7,1025.3,296.5,1.6,1.9,316.2,0.00,3.9,10.0,"07:10:40",1
"16/11/30","07:30",0.0,4.4,96.0,1025.8,280.7,1.3,2.1,312.0,0.00,3.9,9.8,"07:22:24",1
"16/11/30","07:40",0.0,4.9,96.2,1025.3,284.6,2.0,3.1,314.2,0.01,4.4,9.8,"07:34:38",1
"16/11/30","07:50",0.0,5.1,95.9,1025.8,274.1,1.5,1.6,277.6,0.03,4.5,9.8,"07:48:44",1
"16/11/30","08:00",0.0,5.7,93.6,1025.6,310.8,1.6,2.6,318.3,0.05,4.8,9.5,"07:57:26",1
"16/11/30","08:10",0.0,5.9,93.2,1025.8,296.6,1.6,2.7,312.3,0.04,4.9,9.7,"08:04:00",1
"16/11/30","08:20",0.0,6.4,91.6,1025.8,280.0,1.1,1.6,295.3,0.06,5.2,9.9,"08:16:24",1
"16/11/30","08:30",0.0,7.0,89.3,1026.0,265.1,0.7,1.0,293.3,0.09,5.4,9.9,"08:20:08",1
"16/11/30","08:40",0.0,7.4,85.0,1026.3,254.8,0.5,1.1,131.3,0.11,5.1,9.7,"08:39:52",1
"16/11/30","08:50",0.0,7.4,83.7,1026.3,255.8,0.6,1.1,259.8,0.12,4.9,9.9,"08:45:44",1
"16/11/30","09:00",0.0,7.7,83.8,1026.5,171.2,0.6,1.4,104.7,0.16,5.2,10.3,"08:55:12",1
"16/11/30","09:10",0.0,8.2,83.6,1026.7,247.2,0.7,1.7,234.7,0.19,5.6,9.9,"09:05:44",1
"16/11/30","09:20",0.0,8.3,81.3,1026.5,275.1,0.6,0.9,299.8,0.14,5.3,10.1,"09:14:32",1
"16/11/30","09:30",0.0,8.4,79.0,1026.5,300.0,0.8,1.8,312.1,0.13,5.0,10.4,"09:26:32",1
"16/11/30","09:40",0.0,8.6,77.5,1026.5,300.1,0.8,1.7,330.2,0.15,4.9,10.4,"09:32:24",1
"16/11/30","09:50",0.0,9.0,77.2,1026.5,255.5,0.8,2.1,230.6,0.15,5.3,10.6,"09:45:36",1
"16/11/30","10:00",0.0,9.0,75.1,1026.5,112.1,0.7,1.8,122.1,0.17,4.9,11.0,"09:57:04",1
"16/11/30","10:10",0.0,9.2,74.4,1026.5,230.0,0.8,2.2,239.8,0.18,4.9,10.7,"10:08:24",1
"16/11/30","10:20",0.0,10.0,72.7,1026.5,225.2,1.0,2.1,237.3,0.31,5.4,10.7,"10:10:02",1
"16/11/30","10:30",0.0,9.7,72.5,1026.3,227.0,0.8,2.5,237.6,0.22,5.0,11.0,"10:29:28",1
"16/11/30","10:40",0.0,9.7,70.1,1025.8,288.2,0.8,1.9,107.9,0.22,4.6,11.0,"10:35:44",1
"16/11/30","10:50",0.0,9.5,72.2,1025.6,279.9,1.3,2.4,240.9,0.17,4.8,11.3,"10:43:04",1
"16/11/30","11:00",0.0,10.2,70.9,1025.6,245.3,1.0,1.8,241.8,0.24,5.2,11.3,"10:50:40",1
"16/11/30","11:10",0.0,10.4,70.6,1025.1,243.8,1.1,4.4,235.6,0.28,5.3,11.4,"11:07:20",1
"16/11/30","11:20",0.0,10.0,70.5,1025.1,205.9,1.1,2.5,103.5,0.18,4.9,11.5,"11:14:00",1
"16/11/30","11:30",0.0,10.8,68.2,1025.1,234.8,0.8,2.4,222.8,0.28,5.2,11.6,"11:29:36",1
"16/11/30","11:40",0.0,10.8,67.4,1024.6,190.8,0.8,2.2,99.7,0.29,5.0,11.7,"11:39:36",1
"16/11/30","11:50",0.0,10.9,66.1,1024.9,8.9,0.8,2.2,346.8,0.28,4.9,11.8,"11:48:32",1
"16/11/30","12:00",0.0,11.4,65.2,1024.1,244.0,1.2,3.1,208.1,0.40,5.1,12.0,"11:52:24",1
"16/11/30","12:10",0.0,11.3,62.7,1024.1,275.4,1.0,2.0,249.4,0.33,4.5,12.2,"12:00:08",1
"16/11/30","12:20",0.0,10.9,65.5,1023.9,286.2,0.6,1.4,109.7,0.20,4.7,12.1,"12:11:28",1
"16/11/30","12:30",0.0,10.6,64.2,1023.9,243.9,1.1,2.5,235.5,0.18,4.2,12.1,"12:24:32",1
"16/11/30","12:40",0.0,11.1,63.1,1023.7,314.5,0.7,1.8,117.5,0.22,4.4,12.5,"12:38:56",1
"16/11/30","12:50",0.0,11.6,61.6,1023.4,336.9,1.1,2.2,352.4,0.39,4.5,12.2,"12:41:52",1
"16/11/30","13:00",0.0,11.6,61.7,1023.4,2.0,1.0,2.7,108.0,0.29,4.5,12.5,"12:57:52",1
"16/11/30","13:10",0.0,12.0,60.2,1023.2,330.5,1.3,2.7,323.8,0.34,4.6,12.8,"13:01:28",1
"16/11/30","13:20",0.0,11.9,61.7,1022.7,12.1,1.0,2.6,338.5,0.30,4.8,12.7,"13:16:48",1
"16/11/30","13:30",0.0,11.7,62.1,1022.7,193.4,0.6,1.7,143.9,0.22,4.7,13.0,"13:20:16",1
"16/11/30","13:40",0.0,11.6,63.2,1022.7,134.7,0.7,1.4,66.4,0.15,4.9,12.9,"13:33:12",1
"16/11/30","13:50",0.0,11.4,63.0,1023.0,236.5,1.2,2.4,234.7,0.14,4.7,12.8,"13:47:28",1
"16/11/30","14:00",0.0,11.8,62.6,1022.7,299.2,1.1,2.0,312.4,0.16,4.9,12.9,"13:56:32",1
"16/11/30","14:10",0.0,12.0,62.8,1022.5,337.1,1.0,2.5,351.7,0.19,5.2,12.9,"14:06:48",1
"16/11/30","14:20",0.0,12.4,62.7,1022.5,346.1,1.2,2.1,337.8,0.22,5.5,12.9,"14:14:40",1
"16/11/30","14:30",0.0,12.0,61.2,1022.7,21.5,1.0,2.2,99.6,0.18,4.8,12.9,"14:20:16",1
"16/11/30","14:40",0.0,12.8,61.9,1022.7,343.7,1.1,2.6,340.6,0.22,5.7,13.2,"14:30:40",1
"16/11/30","14:50",0.0,13.0,60.6,1022.7,312.0,1.0,2.1,310.8,0.15,5.6,13.2,"14:46:00",1
"16/11/30","15:00",0.0,12.7,60.0,1022.7,331.1,1.0,1.7,350.5,0.07,5.2,13.1,"14:53:44",1
"16/11/30","15:10",0.0,12.3,62.1,1023.2,288.2,0.3,1.0,30.9,0.07,5.3,13.1,"15:02:16",1
"16/11/30","15:20",0.0,12.2,66.6,1022.5,257.7,0.7,1.4,238.9,0.07,6.2,13.2,"15:12:24",1
"16/11/30","15:30",0.0,12.1,66.0,1022.5,288.8,0.3,1.2,251.3,0.05,6.0,13.0,"15:28:24",1
"16/11/30","15:40",0.0,12.0,67.7,1022.5,291.7,0.6,1.0,284.9,0.03,6.3,13.1,"15:37:04",1
"16/11/30","15:50",0.0,11.8,66.5,1022.0,273.1,0.5,1.0,108.1,0.02,5.8,13.1,"15:43:04",1
"16/11/30","16:00",0.0,11.8,66.5,1021.8,305.4,0.6,1.3,327.1,0.04,5.8,12.9,"15:56:40",1
"16/11/30","16:10",0.0,11.8,66.8,1022.0,329.9,0.5,1.2,352.0,0.02,5.9,13.0,"16:06:48",1
"16/11/30","16:20",0.0,11.6,70.2,1022.3,325.5,1.3,1.7,338.3,0.01,6.4,13.1,"16:10:08",1
"16/11/30","16:30",0.0,11.1,74.3,1021.8,323.5,1.6,1.8,329.5,0.00,6.7,12.9,"16:21:04",1
"16/11/30","16:40",0.0,10.6,77.4,1022.0,316.5,1.6,2.1,316.2,0.00,6.9,12.7,"16:32:16",1
"16/11/30","16:50",0.0,10.2,79.6,1021.5,297.6,1.1,1.8,318.7,0.00,6.9,12.9,"16:45:20",1
"16/11/30","17:00",0.0,9.9,81.0,1021.5,306.4,1.3,1.7,317.8,0.00,6.8,12.6,"16:58:32",1
"16/11/30","17:10",0.0,9.6,81.9,1021.8,301.2,1.3,2.0,318.7,0.00,6.7,12.6,"17:08:56",1
"16/11/30","17:20",0.0,9.3,82.8,1021.1,309.8,1.6,2.1,320.6,0.00,6.6,12.7,"17:12:00",1
"16/11/30","17:30",0.0,9.1,84.2,1021.1,316.8,1.5,2.2,317.0,0.00,6.6,12.5,"17:22:16",1
"16/11/30","17:40",0.0,8.8,85.3,1021.5,301.6,1.5,2.4,323.9,0.00,6.5,12.7,"17:32:00",1
"16/11/30","17:50",0.0,8.6,86.5,1021.5,304.4,1.6,2.1,322.2,0.00,6.5,12.2,"17:43:20",1
"16/11/30","18:00",0.0,8.7,86.4,1021.8,294.7,1.5,2.5,313.5,0.00,6.6,12.2,"17:51:44",1
"16/11/30","18:10",0.0,8.8,85.6,1021.3,301.0,1.3,1.9,311.5,0.00,6.6,12.4,"18:06:34",1
"16/11/30","18:20",0.0,8.8,85.8,1022.0,286.6,1.1,1.9,311.5,0.00,6.6,12.2,"18:11:52",1
"16/11/30","18:30",0.0,8.6,86.0,1021.3,284.9,1.2,1.8,314.0,0.00,6.4,12.1,"18:26:56",1
"16/11/30","18:40",0.0,8.8,85.5,1021.8,275.6,1.2,1.9,262.6,0.00,6.5,12.0,"18:34:48",1
"16/11/30","18:50",0.0,9.0,85.3,1021.5,301.9,1.2,2.0,322.5,0.00,6.7,12.0,"18:48:32",1
"16/11/30","19:00",0.0,9.0,85.8,1021.3,311.5,1.2,2.2,312.5,0.00,6.8,11.9,"18:53:04",1
"16/11/30","19:10",0.0,8.9,87.0,1021.1,291.3,1.0,1.3,295.6,0.00,6.9,12.0,"19:09:28",1
"16/11/30","19:20",0.0,8.9,88.0,1021.3,309.1,1.3,2.0,325.3,0.00,7.1,12.1,"19:16:24",1
"16/11/30","19:30",0.0,8.8,88.1,1021.1,325.9,1.3,2.0,318.8,0.00,7.0,12.0,"19:21:52",1
"16/11/30","19:40",0.0,8.9,88.1,1021.1,315.8,1.3,1.8,324.6,0.00,7.1,11.8,"19:35:04",1
"16/11/30","19:50",0.0,8.9,88.5,1021.3,306.2,1.3,2.0,330.8,0.00,7.1,12.1,"19:46:08",1
"16/11/30","20:00",0.0,8.9,88.6,1021.1,291.5,0.8,1.2,307.4,0.00,7.2,11.9,"19:51:44",1
"16/11/30","20:10",0.0,8.9,88.1,1021.1,292.6,1.0,2.0,314.8,0.00,7.1,12.0,"20:08:18",1
"16/11/30","20:20",0.0,9.1,87.9,1020.8,312.7,1.3,1.9,325.6,0.00,7.2,11.8,"20:10:08",1
"16/11/30","20:30",0.0,9.0,88.5,1021.1,295.2,1.0,1.3,307.5,0.00,7.2,12.0,"20:22:18",1
"16/11/30","20:40",0.0,8.7,89.1,1020.4,306.3,1.1,1.9,319.7,0.00,7.0,11.9,"20:34:40",1
"16/11/30","20:50",0.0,8.6,89.8,1020.6,303.0,1.1,1.6,316.2,0.00,7.1,11.9,"20:45:52",1
"16/11/30","21:00",0.0,8.6,90.3,1020.1,302.7,1.1,1.4,312.8,0.00,7.1,11.8,"20:55:44",1
"16/11/30","21:10",0.0,8.6,90.2,1020.4,299.1,1.1,1.3,320.3,0.00,7.1,11.8,"21:00:08",1
"16/11/30","21:20",0.0,8.8,90.2,1020.4,305.2,1.2,1.9,319.9,0.00,7.3,11.8,"21:10:32",1
"16/11/30","21:30",0.0,8.7,90.4,1019.7,320.2,1.0,1.8,318.8,0.00,7.3,11.8,"21:28:00",1
"16/11/30","21:40",0.0,8.6,91.0,1019.9,296.3,1.2,1.4,308.8,0.00,7.3,11.9,"21:31:36",1
"16/11/30","21:50",0.0,8.5,91.6,1019.9,304.2,1.1,1.7,318.6,0.00,7.3,11.7,"21:49:04",1
"16/11/30","22:00",0.0,8.7,92.1,1019.7,317.7,1.5,2.2,324.8,0.00,7.5,11.8,"21:52:08",1
"16/11/30","22:10",0.0,8.8,92.3,1019.7,326.4,1.3,1.9,333.4,0.00,7.7,11.4,"22:06:40",1
"16/11/30","22:20",0.0,8.8,92.7,1019.7,304.5,1.3,2.0,324.5,0.00,7.7,11.4,"22:15:36",1
"16/11/30","22:30",0.0,9.0,93.0,1019.9,299.5,1.1,1.8,324.1,0.00,8.0,11.8,"22:28:48",1
"16/11/30","22:40",0.0,9.2,92.8,1019.9,307.3,1.3,2.0,324.1,0.00,8.1,11.6,"22:31:52",1
"16/11/30","22:50",0.0,9.3,92.6,1019.7,287.0,0.8,1.2,278.8,0.00,8.2,11.6,"22:45:52",1
"16/11/30","23:00",0.0,9.4,93.1,1019.7,261.0,1.1,1.7,252.0,0.00,8.4,11.7,"22:54:26",1
"16/11/30","23:10",0.0,9.4,92.6,1019.2,281.7,0.7,1.2,269.6,0.00,8.3,11.5,"23:01:14",1
"16/11/30","23:20",0.0,9.3,92.7,1019.0,314.3,1.5,1.9,327.8,0.00,8.2,11.4,"23:18:36",1
"16/11/30","23:30",0.0,9.1,93.1,1019.2,292.4,1.1,1.8,315.3,0.00,8.1,11.5,"23:20:16",1
"16/11/30","23:40",0.0,9.2,93.6,1019.0,309.7,1.3,1.8,321.2,0.00,8.3,11.5,"23:33:44",1
"16/11/30","23:50",0.0,9.4,93.6,1019.2,303.8,1.2,1.7,341.8,0.00,8.5,11.7,"23:41:04",1
"16/11/30","24:00",0.0,9.5,93.6,1019.0,288.5,1.0,1.3,311.6,0.00,8.6,11.6,"23:53:56",1
